DLH6VV EDDF-EDDV

Flight info

Callsign DLH6VV
Flight time 0h 32m
Altitude 22000
Route MARUN5E MARUN Y153 WRB WRB3E
Aircraft A320/M-SDE2E3FGIJ1LORWXYZ/HB1

Departure

Time 2026-05-01 12:24
Airport Frankfurt Main Airport (EDDF)

Arrival

Time 2026-05-01 12:56
Airport Hannover Airport (EDDV)
Time Latitude Longitude Altitude Speed Heading
2026-05-01 10:27 50.04062 8.55619 356 ft 0 kts 159°
2026-05-01 10:31 50.04064 8.55645 358 ft 0 kts 160°
2026-05-01 12:18 50.04023 8.55667 355 ft 9 kts 165°
2026-05-01 12:18 50.03972 8.55621 352 ft 9 kts 239°
2026-05-01 12:18 50.03942 8.55504 349 ft 12 kts 250°
2026-05-01 12:18 50.03915 8.55383 352 ft 12 kts 251°
2026-05-01 12:19 50.03888 8.55270 355 ft 15 kts 249°
2026-05-01 12:19 50.03835 8.55058 355 ft 23 kts 249°
2026-05-01 12:19 50.03779 8.54832 353 ft 22 kts 250°
2026-05-01 12:19 50.03729 8.54613 351 ft 21 kts 250°
2026-05-01 12:20 50.03687 8.54436 345 ft 17 kts 250°
2026-05-01 12:20 50.03651 8.54322 343 ft 7 kts 221°
2026-05-01 12:20 50.03603 8.54312 349 ft 7 kts 168°
2026-05-01 12:20 50.03575 8.54327 347 ft 0 kts 158°
2026-05-01 12:21 50.03565 8.54334 343 ft 0 kts 158°
2026-05-01 12:22 50.03535 8.54353 343 ft 4 kts 158°
2026-05-01 12:22 50.03495 8.54392 346 ft 12 kts 120°
2026-05-01 12:22 50.03498 8.54460 346 ft 0 kts 68°
2026-05-01 12:23 50.03516 8.54529 346 ft 32 kts 69°
2026-05-01 12:23 50.03686 8.55246 347 ft 106 kts 70°
2026-05-01 12:23 50.04012 8.56599 391 ft 156 kts 70°
2026-05-01 12:23 50.04413 8.58300 899 ft 176 kts 71°
2026-05-01 12:24 50.04845 8.60132 1660 ft 184 kts 73°
2026-05-01 12:24 50.05323 8.62047 2191 ft 204 kts 66°
2026-05-01 12:24 50.06407 8.63666 2643 ft 238 kts 26°
2026-05-01 12:24 50.08120 8.64179 3255 ft 263 kts
2026-05-01 12:25 50.09976 8.64075 4250 ft 271 kts 357°
2026-05-01 12:25 50.13877 8.63455 6057 ft 289 kts 356°
2026-05-01 12:25 50.15888 8.63168 7060 ft 292 kts 357°
2026-05-01 12:26 50.17927 8.62933 8025 ft 295 kts 358°
2026-05-01 12:26 50.22069 8.62585 9992 ft 301 kts 359°
2026-05-01 12:26 50.24190 8.62441 10697 ft 314 kts 359°
2026-05-01 12:27 50.26449 8.62298 11117 ft 334 kts 359°
2026-05-01 12:27 50.31182 8.62005 12711 ft 345 kts 360°
2026-05-01 12:28 50.35191 8.61812 14154 ft 349 kts
2026-05-01 12:28 50.37635 8.61794 14897 ft 352 kts
2026-05-01 12:28 50.43396 8.61860 16610 ft 360 kts
2026-05-01 12:29 50.45908 8.62078 17320 ft 363 kts
2026-05-01 12:29 50.48437 8.62451 18034 ft 367 kts
2026-05-01 12:29 50.52733 8.63063 19167 ft 373 kts
2026-05-01 12:30 50.57907 8.63785 20429 ft 378 kts
2026-05-01 12:30 50.60541 8.64150 21079 ft 380 kts
2026-05-01 12:30 50.63198 8.64522 21725 ft 383 kts
2026-05-01 12:31 50.65863 8.64896 22213 ft 386 kts
2026-05-01 12:31 50.68536 8.65266 22334 ft 382 kts
2026-05-01 12:31 50.71122 8.65622 22355 ft 364 kts
2026-05-01 12:31 50.73578 8.65965 22356 ft 356 kts
2026-05-01 12:32 50.76034 8.66313 22356 ft 354 kts
2026-05-01 12:32 50.80930 8.67046 22354 ft 352 kts 10°
2026-05-01 12:32 50.83308 8.67950 22363 ft 350 kts 21°
2026-05-01 12:33 50.85573 8.69368 22360 ft 349 kts 23°
2026-05-01 12:33 50.87831 8.70806 22363 ft 349 kts 24°
2026-05-01 12:33 50.90058 8.72221 22363 ft 349 kts 24°
2026-05-01 12:33 50.92314 8.73649 22359 ft 349 kts 24°
2026-05-01 12:34 50.94572 8.75074 22352 ft 349 kts 24°
2026-05-01 12:34 50.96826 8.76502 22352 ft 349 kts 24°
2026-05-01 12:34 50.99086 8.77938 22351 ft 349 kts 23°
2026-05-01 12:34 51.01340 8.79372 22348 ft 349 kts 24°
2026-05-01 12:35 51.03596 8.80811 22351 ft 349 kts 23°
2026-05-01 12:35 51.05850 8.82250 22348 ft 349 kts 24°
2026-05-01 12:35 51.08107 8.83692 22347 ft 349 kts 24°
2026-05-01 12:35 51.10361 8.85135 22345 ft 349 kts 24°
2026-05-01 12:36 51.12614 8.86571 22344 ft 349 kts 24°
2026-05-01 12:36 51.14871 8.88007 22346 ft 349 kts 24°
2026-05-01 12:36 51.17129 8.89446 22344 ft 349 kts 23°
2026-05-01 12:36 51.19384 8.90890 22345 ft 349 kts 24°
2026-05-01 12:37 51.21644 8.92342 22346 ft 349 kts 24°
2026-05-01 12:37 51.23898 8.93799 22340 ft 349 kts 24°
2026-05-01 12:37 51.26149 8.95252 22341 ft 349 kts 24°
2026-05-01 12:37 51.28406 8.96707 22342 ft 349 kts 24°
2026-05-01 12:38 51.30631 8.98144 22343 ft 350 kts 24°
2026-05-01 12:38 51.32889 8.99604 22347 ft 350 kts 25°
2026-05-01 12:38 51.35146 9.01066 22348 ft 350 kts 24°
2026-05-01 12:38 51.37400 9.02527 22351 ft 350 kts 24°
2026-05-01 12:39 51.39652 9.03990 22212 ft 348 kts 25°
2026-05-01 12:39 51.41882 9.05442 21956 ft 344 kts 24°
2026-05-01 12:39 51.44092 9.06882 21696 ft 342 kts 24°
2026-05-01 12:39 51.46296 9.08316 21431 ft 341 kts 24°
2026-05-01 12:40 51.48494 9.09747 21180 ft 341 kts 25°
2026-05-01 12:40 51.50749 9.10913 20928 ft 342 kts 14°
2026-05-01 12:40 51.53109 9.11397 20677 ft 343 kts
2026-05-01 12:40 51.55489 9.11662 20428 ft 342 kts
2026-05-01 12:41 51.57863 9.11937 20180 ft 342 kts
2026-05-01 12:41 51.60230 9.12216 19935 ft 341 kts
2026-05-01 12:41 51.62597 9.12498 19693 ft 340 kts
2026-05-01 12:41 51.64951 9.12775 19453 ft 339 kts
2026-05-01 12:42 51.67308 9.13051 19213 ft 338 kts
2026-05-01 12:42 51.69653 9.13325 18975 ft 338 kts
2026-05-01 12:42 51.71989 9.13600 18721 ft 334 kts
2026-05-01 12:42 51.74276 9.13869 18310 ft 333 kts
2026-05-01 12:43 51.76582 9.14142 17897 ft 332 kts
2026-05-01 12:43 51.78883 9.14414 17483 ft 331 kts
2026-05-01 12:43 51.81181 9.14690 17079 ft 330 kts
2026-05-01 12:43 51.83466 9.14957 16676 ft 329 kts
2026-05-01 12:44 51.85752 9.15197 16306 ft 328 kts
2026-05-01 12:44 51.88025 9.15430 15979 ft 325 kts
2026-05-01 12:44 51.92496 9.15876 15296 ft 322 kts
2026-05-01 12:45 51.97101 9.16342 13731 ft 346 kts
2026-05-01 12:45 51.99559 9.16595 12704 ft 361 kts
2026-05-01 12:45 52.02095 9.16871 11941 ft 367 kts
2026-05-01 12:46 52.04595 9.17144 11776 ft 353 kts
2026-05-01 12:46 52.06967 9.17400 11642 ft 328 kts
2026-05-01 12:46 52.09162 9.17625 11520 ft 304 kts
2026-05-01 12:46 52.11200 9.17822 11386 ft 284 kts
2026-05-01 12:47 52.13134 9.18004 11015 ft 275 kts
2026-05-01 12:47 52.15034 9.18185 10551 ft 272 kts
2026-05-01 12:47 52.16917 9.18362 10026 ft 270 kts
2026-05-01 12:47 52.18788 9.18540 9471 ft 268 kts
2026-05-01 12:48 52.20639 9.18725 8950 ft 265 kts
2026-05-01 12:48 52.22471 9.18904 8395 ft 263 kts
2026-05-01 12:48 52.24288 9.19085 7852 ft 260 kts
2026-05-01 12:48 52.26090 9.19270 7334 ft 258 kts
2026-05-01 12:49 52.27875 9.19455 6788 ft 256 kts
2026-05-01 12:49 52.29652 9.19633 6297 ft 256 kts
2026-05-01 12:49 52.31336 9.20365 5964 ft 248 kts 29°
2026-05-01 12:49 52.32851 9.21696 5582 ft 247 kts 33°
2026-05-01 12:50 52.34339 9.23112 5219 ft 247 kts 34°
2026-05-01 12:50 52.35813 9.24536 4896 ft 245 kts 34°
2026-05-01 12:50 52.37255 9.25936 4593 ft 243 kts 34°
2026-05-01 12:50 52.38707 9.27339 4268 ft 242 kts 34°
2026-05-01 12:51 52.40144 9.28737 3975 ft 239 kts 33°
2026-05-01 12:51 52.41567 9.30123 3734 ft 236 kts 34°
2026-05-01 12:51 52.44087 9.33365 3030 ft 226 kts 60°
2026-05-01 12:52 52.44887 9.35572 2999 ft 226 kts 64°
2026-05-01 12:52 52.46177 9.40202 3006 ft 221 kts 86°
2026-05-01 12:52 52.46156 9.42713 3010 ft 219 kts 95°
2026-05-01 12:53 52.46030 9.47596 2583 ft 211 kts 95°
2026-05-01 12:53 52.45968 9.49983 2305 ft 208 kts 94°
2026-05-01 12:53 52.45908 9.52306 2048 ft 201 kts 94°
2026-05-01 12:54 52.45850 9.54558 1773 ft 192 kts 95°
2026-05-01 12:54 52.45747 9.58507 1313 ft 154 kts 95°
2026-05-01 12:54 52.45702 9.60179 1109 ft 145 kts 95°
2026-05-01 12:55 52.45621 9.63351 697 ft 128 kts 96°
2026-05-01 12:55 52.45576 9.64869 560 ft 140 kts 94°
2026-05-01 12:55 52.45538 9.66453 401 ft 140 kts 95°
2026-05-01 12:56 52.45490 9.68048 199 ft 136 kts 95°
2026-05-01 12:56 52.45450 9.69434 186 ft 102 kts 92°
2026-05-01 12:56 52.45426 9.70308 174 ft 54 kts 91°
2026-05-01 12:56 52.45436 9.70647 179 ft 15 kts 43°
2026-05-01 12:57 52.45475 9.70666 179 ft 5 kts
2026-05-01 12:57 52.45620 9.70663 179 ft 15 kts 337°
2026-05-01 12:57 52.45656 9.70464 179 ft 18 kts 279°
2026-05-01 12:58 52.45661 9.70236 182 ft 24 kts 274°
2026-05-01 12:58 52.45667 9.69972 182 ft 23 kts 272°
2026-05-01 12:58 52.45675 9.69712 181 ft 23 kts 273°
2026-05-01 12:59 52.45762 9.69365 179 ft 12 kts 291°
2026-05-01 12:59 52.45819 9.69379 179 ft 11 kts 27°